When you browse on this site, cookies collect data to enhance your experience and personalize the content and advertising you see.
Visit our Privacy Policy to learn more. By continuing to use the site, you agree to this use of cookies and data.
  • In Österreich
  • Länderverzeichnis
  • Für 7 Tage
  • Wassertemperatur
  • Satellitenkarten
  • Wetterkarte
  • News
  • Widgets
  • user-avatar
    Anmelden

    Stündliche Wetter Elzbieciny

    Heute, 21 März, Donnerstag

    Zeit Temperatur Niederschläge Wind Luftdruck Luftfeuchtigkeit
    00:00 +5°C° 0 mm 3 m/S 765 mmHg 70%
    01:00 +5°C° 0 mm 3 m/S 766 mmHg 72%
    02:00 +4°C° 0 mm 3 m/S 765 mmHg 76%
    03:00 +4°C° 0 mm 3 m/S 765 mmHg 81%
    04:00 +3°C° 0 mm 3 m/S 765 mmHg 85%
    05:00 +4°C° 0 mm 3 m/S 765 mmHg 88%
    06:00 +4°C° 0 mm 3 m/S 766 mmHg 90%
    07:00 +4°C° 0 mm 3 m/S 766 mmHg 93%
    08:00 +5°C° 0 mm 3 m/S 766 mmHg 88%
    09:00 +8°C° 0 mm 3 m/S 766 mmHg 83%
    10:00 +10°C° 0 mm 4 m/S 766 mmHg 79%
    11:00 +11°C° 0 mm 4 m/S 766 mmHg 76%
    12:00 +11°C° 0 mm 4 m/S 766 mmHg 74%
    13:00 +12°C° 0 mm 4 m/S 766 mmHg 71%
    14:00 +12°C° 0 mm 4 m/S 765 mmHg 72%
    15:00 +12°C° 0 mm 3 m/S 765 mmHg 72%
    16:00 +12°C° 0 mm 3 m/S 765 mmHg 73%
    17:00 +12°C° 0 mm 3 m/S 765 mmHg 75%
    18:00 +11°C° 0 mm 3 m/S 765 mmHg 78%
    19:00 +12°C° 0 mm 2 m/S 765 mmHg 80%
    20:00 +10°C° 0 mm 2 m/S 765 mmHg 83%
    21:00 +9°C° 0 mm 3 m/S 765 mmHg 86%
    22:00 +9°C° 0 mm 3 m/S 765 mmHg 89%
    23:00 +9°C° 0 mm 3 m/S 765 mmHg 91%

    Morgen, 22 März, Freitag

    Zeit Temperatur Niederschläge Wind Luftdruck Luftfeuchtigkeit
    00:00 +8°C° 0 mm 3 m/S 765 mmHg 92%
    01:00 +8°C° 0 mm 3 m/S 765 mmHg 93%
    02:00 +8°C° 0 mm 2 m/S 765 mmHg 93%
    03:00 +8°C° 0 mm 2 m/S 765 mmHg 93%
    04:00 +8°C° 0 mm 2 m/S 765 mmHg 93%
    05:00 +8°C° 0 mm 2 m/S 765 mmHg 93%
    06:00 +8°C° 0 mm 2 m/S 765 mmHg 93%
    07:00 +9°C° 0 mm 1 m/S 765 mmHg 94%
    08:00 +11°C° 0 mm 1 m/S 765 mmHg 87%
    09:00 +12°C° 0 mm 2 m/S 765 mmHg 81%
    10:00 +14°C° 0 mm 2 m/S 765 mmHg 74%
    11:00 +15°C° 0 mm 2 m/S 765 mmHg 69%
    12:00 +16°C° 0 mm 2 m/S 765 mmHg 65%
    13:00 +17°C° 0 mm 2 m/S 765 mmHg 60%
    14:00 +18°C° 0 mm 1 m/S 765 mmHg 60%
    15:00 +18°C° 0 mm 1 m/S 764 mmHg 60%
    16:00 +16°C° 0 mm 0 m/S 764 mmHg 60%
    17:00 +15°C° 0 mm 1 m/S 764 mmHg 66%
    18:00 +14°C° 0 mm 1 m/S 763 mmHg 73%
    19:00 +13°C° 0 mm 2 m/S 763 mmHg 79%
    20:00 +12°C° 0 mm 2 m/S 763 mmHg 83%
    21:00 +10°C° 0 mm 2 m/S 763 mmHg 86%
    22:00 +10°C° 0 mm 2 m/S 763 mmHg 90%
    23:00 +10°C° 0 mm 2 m/S 763 mmHg 90%

    übermorgen, 23 März, Samstag

    Zeit Temperatur Niederschläge Wind Luftdruck Luftfeuchtigkeit
    00:00 +9°C° 0 mm 2 m/S 763 mmHg 91%
    01:00 +9°C° 0 mm 2 m/S 763 mmHg 92%
    02:00 +9°C° 0 mm 2 m/S 762 mmHg 92%
    03:00 +9°C° 0 mm 2 m/S 762 mmHg 92%
    04:00 +8°C° 0 mm 2 m/S 761 mmHg 92%
    05:00 +9°C° 0 mm 2 m/S 761 mmHg 90%
    06:00 +9°C° 0 mm 2 m/S 761 mmHg 88%
    07:00 +9°C° 0 mm 2 m/S 761 mmHg 87%
    08:00 +11°C° 0 mm 3 m/S 761 mmHg 79%
    09:00 +13°C° 0 mm 3 m/S 761 mmHg 71%
    10:00 +16°C° 0 mm 3 m/S 761 mmHg 62%
    11:00 +17°C° 0 mm 3 m/S 760 mmHg 58%
    12:00 +18°C° 0 mm 3 m/S 760 mmHg 54%
    13:00 +19°C° 0 mm 3 m/S 760 mmHg 49%
    14:00 +19°C° 0 mm 3 m/S 760 mmHg 50%
    15:00 +19°C° 0 mm 3 m/S 759 mmHg 51%
    16:00 +19°C° 0 mm 3 m/S 759 mmHg 51%
    17:00 +17°C° 0.1 mm 4 m/S 759 mmHg 59%
    18:00 +15°C° 0.1 mm 4 m/S 760 mmHg 67%
    19:00 +13°C° 0.1 mm 4 m/S 760 mmHg 75%
    20:00 +11°C° 0 mm 4 m/S 761 mmHg 78%
    21:00 +10°C° 0 mm 4 m/S 761 mmHg 80%
    22:00 +8°C° 0 mm 4 m/S 762 mmHg 82%
    23:00 +7°C° 0 mm 4 m/S 762 mmHg 79%

    24 März, Sonntag

    Zeit Temperatur Niederschläge Wind Luftdruck Luftfeuchtigkeit
    00:00 +6°C° 0 mm 4 m/S 762 mmHg 76%
    01:00 +5°C° 0 mm 3 m/S 762 mmHg 73%
    02:00 +5°C° 0 mm 3 m/S 762 mmHg 71%
    03:00 +4°C° 0 mm 3 m/S 762 mmHg 70%
    04:00 +4°C° 0 mm 2 m/S 762 mmHg 69%
    05:00 +4°C° 0 mm 2 m/S 762 mmHg 69%
    06:00 +4°C° 0 mm 2 m/S 762 mmHg 69%
    07:00 +4°C° 0 mm 2 m/S 763 mmHg 69%
    08:00 +5°C° 0 mm 2 m/S 762 mmHg 62%
    09:00 +7°C° 0 mm 2 m/S 762 mmHg 56%
    10:00 +8°C° 0 mm 2 m/S 762 mmHg 50%
    11:00 +9°C° 0 mm 2 m/S 762 mmHg 46%
    12:00 +10°C° 0 mm 2 m/S 761 mmHg 42%
    13:00 +12°C° 0 mm 2 m/S 761 mmHg 39%
    14:00 +12°C° 0 mm 2 m/S 760 mmHg 38%
    15:00 +12°C° 0 mm 2 m/S 759 mmHg 38%
    16:00 +12°C° 0 mm 1 m/S 759 mmHg 38%
    17:00 +11°C° 0 mm 1 m/S 759 mmHg 41%
    18:00 +9°C° 0 mm 2 m/S 758 mmHg 45%
    19:00 +7°C° 0 mm 2 m/S 758 mmHg 49%
    20:00 +8°C° 0 mm 1 m/S 758 mmHg 50%
    21:00 +8°C° 0 mm 1 m/S 758 mmHg 50%
    22:00 +8°C° 0 mm 1 m/S 757 mmHg 51%
    23:00 +8°C° 0 mm 1 m/S 757 mmHg 52%

    25 März, Montag

    Zeit Temperatur Niederschläge Wind Luftdruck Luftfeuchtigkeit
    00:00 +7°C° 0 mm 1 m/S 757 mmHg 53%
    01:00 +7°C° 0 mm 1 m/S 756 mmHg 55%
    02:00 +6°C° 0 mm 1 m/S 756 mmHg 57%
    03:00 +5°C° 0 mm 2 m/S 756 mmHg 60%
    04:00 +4°C° 0 mm 2 m/S 756 mmHg 62%
    05:00 +4°C° 0 mm 2 m/S 756 mmHg 64%
    06:00 +4°C° 0 mm 2 m/S 756 mmHg 67%
    07:00 +3°C° 0 mm 3 m/S 756 mmHg 69%
    08:00 +5°C° 0 mm 4 m/S 755 mmHg 64%
    09:00 +6°C° 0 mm 5 m/S 755 mmHg 59%
    10:00 +8°C° 0 mm 6 m/S 755 mmHg 53%
    11:00 +8°C° 0 mm 7 m/S 755 mmHg 51%
    12:00 +8°C° 0 mm 7 m/S 754 mmHg 49%
    13:00 +9°C° 0 mm 8 m/S 753 mmHg 46%
    14:00 +7°C° 0.3 mm 8 m/S 753 mmHg 52%
    15:00 +7°C° 0.3 mm 9 m/S 753 mmHg 57%
    16:00 +6°C° 0.3 mm 9 m/S 752 mmHg 63%
    17:00 +5°C° 0.4 mm 8 m/S 752 mmHg 65%
    18:00 +4°C° 0.4 mm 7 m/S 752 mmHg 67%
    19:00 +3°C° 0.4 mm 6 m/S 752 mmHg 69%
    20:00 +2°C° 0 mm 6 m/S 752 mmHg 70%
    21:00 +2°C° 0 mm 6 m/S 752 mmHg 72%
    22:00 +1°C° 0 mm 6 m/S 752 mmHg 73%
    23:00 0°C° 0 mm 7 m/S 752 mmHg 73%

    26 März, Dienstag

    Zeit Temperatur Niederschläge Wind Luftdruck Luftfeuchtigkeit
    00:00 0°C° 0 mm 7 m/S 751 mmHg 73%
    01:00 0°C° 0 mm 8 m/S 751 mmHg 72%
    02:00 0°C° 0 mm 8 m/S 751 mmHg 72%
    03:00 -1°C° 0 mm 8 m/S 751 mmHg 71%
    04:00 -1°C° 0 mm 9 m/S 751 mmHg 71%
    05:00 -1°C° 0.1 mm 9 m/S 751 mmHg 67%
    06:00 -1°C° 0.1 mm 9 m/S 751 mmHg 64%
    07:00 0°C° 0.1 mm 10 m/S 751 mmHg 60%
    08:00 0°C° 0.1 mm 10 m/S 752 mmHg 58%
    09:00 0°C° 0.1 mm 10 m/S 753 mmHg 56%
    10:00 0°C° 0.1 mm 10 m/S 754 mmHg 54%
    11:00 0°C° 0 mm 10 m/S 754 mmHg 52%
    12:00 +1°C° 0 mm 10 m/S 755 mmHg 49%
    13:00 +1°C° 0 mm 10 m/S 755 mmHg 46%
    14:00 +1°C° 0 mm 9 m/S 756 mmHg 47%
    15:00 +1°C° 0 mm 9 m/S 757 mmHg 49%
    16:00 +1°C° 0 mm 8 m/S 757 mmHg 50%
    17:00 0°C° 0 mm 8 m/S 758 mmHg 51%
    18:00 0°C° 0 mm 7 m/S 758 mmHg 53%
    19:00 -1°C° 0 mm 6 m/S 759 mmHg 54%
    20:00 -1°C° 0 mm 6 m/S 759 mmHg 57%
    21:00 -1°C° 0 mm 5 m/S 760 mmHg 59%
    22:00 -2°C° 0 mm 5 m/S 760 mmHg 62%
    23:00 -2°C° 0 mm 5 m/S 760 mmHg 63%
    Mehr zeigen